Regional Weather Roundup
Issued by NWS Wakefield, VA

Home | Current Version | Previous Version | Text Only | Print | Product List | Glossary On
Versions: 1 2 3 4 5 6 7 8 9 10 11 12 13 14 15 16 17 18 19 20 21 22 23 24 25 26 27 28
000
ASUS41 KAKQ 191010
RWRAKQ

REGIONAL WEATHER ROUNDUP
NATIONAL WEATHER SERVICE WAKEFIELD VA
600 AM EDT SAT APR 19 2014

Note: "fair" indicates few or no clouds below 12,000 feet with no
significant weather and/or obstructions to visibility. * = Denotes
station may not report precipitation (e.g., rain,snow,etc.),
thunder or fog.

VAZ042-051-052>054-056-191100-
NORTHERN VIRGINIA

CITY           SKY/WX    TMP DP  RH WIND       PRES   REMARKS
WASH NATIONAL  CLOUDY    47  39  74 E5        30.26R
DULLES         CLOUDY    39  36  89 CALM      30.25R
FORT BELVOIR   CLOUDY    41  40  95 NW1       30.26R
QUANTICO       CLOUDY    44  39  82 NW5       30.27R
FREDERICKSBRG* CLOUDY    43  43 100 CALM      30.24R
STAFFORD*      CLOUDY    39  39 100 CALM      30.29R
WARRENTON      CLOUDY    40  40 100 CALM      30.24R
CULPEPER*      CLOUDY    41  41 100 CALM      30.26R
MANASSAS*      CLOUDY    41  41 100 CALM      30.25R
LEESBURG*      CLOUDY    43  39  87 CALM      30.26R
WINCHESTER     CLOUDY    41  36  81 CALM      30.24R
$$

VAZ048-049-060>072-079>083-191100-
CENTRAL AND SOUTH CENTRAL VIRGINIA...AND NORTH CENTRAL NORTH CAROLINA

CITY           SKY/WX    TMP DP  RH WIND       PRES   REMARKS
RICHMOND       CLOUDY    46  42  86 CALM      30.24R
CHESTERFIELD*  NOT AVBL
HANOVER        CLOUDY    45  42  89 CALM      30.25R
TAPPAHANNOCK*  CLOUDY    44  41  87 CALM      30.25R
CHARLOTTSVILLE CLOUDY    44  38  79 N3        30.23R
ORANGE*        CLOUDY    41  37  87 CALM      30.26R
LOUISA*        CLOUDY    43  39  87 CALM      30.22R
FARMVILLE*     DRIZZLE   46  45  93 CALM      30.22R
SOUTH HILL*    LGT RAIN  46  46 100 N5        30.26S
ROANOKE RAPIDS LGT RAIN  45  43  93 NE7       30.19F
RALEIGH        LGT RAIN  47  44  90 NE7       30.15F
$$

VAZ088>098-191100-
SOUTHEAST VIRGINIA

CITY           SKY/WX    TMP DP  RH WIND       PRES   REMARKS
NORFOLK        LGT RAIN  47  43  86 NE10      30.22R
VIRGINIA BEACH LGT RAIN  47  43  86 N8        30.21S
NORFOLK NAVAL  LGT RAIN  48  44  86 NE10      30.24R
WEST POINT*    CLOUDY    48  43  85 CALM      30.26S
NEWPORT NEWS   LGT RAIN  50  44  80 NE3       30.24R
LANGLEY AFB    LGT RAIN  47  47  99 NE8       30.24R
FORT EUSTIS    DRIZZLE   47  45  93 N1        30.22R
WILLIAMSBURG*    N/A     48  46  93 CALM      30.24R
FRANKLIN*      CLOUDY    46 N/A N/A NE5       30.22S
WAKEFIELD      LGT RAIN  47  44  90 CALM      30.23S
$$

VAZ020-022-025-037-045-191100-
WESTERN AND SOUTHWEST VIRGINIA

CITY           SKY/WX    TMP DP  RH WIND       PRES   REMARKS
STAUNTON*      CLOUDY    39  37  90 CALM      30.24R
HOT SPRINGS VA CLOUDY    48  30  49 NE8       30.26R
LYNCHBURG      CLOUDY    50  42  74 CALM      30.23R
DANVILLE       LGT RAIN  47  44  90 NE7       30.21S
MARTINSVILLE   RAIN      46  44  93 CALM      30.22S
ROANOKE        CLOUDY    46  40  79 CALM      30.23R
BLACKSBURG     CLOUDY    45  43  93 CALM      30.22R
DUBLIN*        CLOUDY    43  41  93 CALM      30.20F
MARION*        CLOUDY    45  38  76 E3        30.21R
HILLSVILLE*    DRIZZLE   45  37  76 NE5       30.20F
RICHLANDS*     CLOUDY    53  33  46 NE8       30.17S
WISE*          CLOUDY    52  34  50 N6        30.18R
ABINGDON*      CLOUDY    52  36  53 E7        30.14F
$$

MDZ021>025-VAZ099-100-191100-
SOUTHERN MARYLAND AND THE DELMARVA PENINSULA

CITY           SKY/WX    TMP DP  RH WIND       PRES   REMARKS
PATUXENT RIVER CLOUDY    44  41  89 CALM      30.25R
BAY BRIDGE APT MOCLDY    45  43  93 CALM      30.27R
LEONARDTOWN    CLOUDY    43  39  87 CALM      30.26R
DOVER          MOCLDY    39  39 100 SE2       30.22S
GEORGETOWN     MOCLDY    40  37  89 CALM      30.27R
EASTON         MOCLDY    43  43 100 CALM      30.29S
CAMBRIDGE      MOCLDY    43  39  87 CALM      30.25S
SALISBURY      MOCLDY    44  39  82 CALM      30.25R
OCEAN CITY     CLOUDY    43  40  89 CALM      30.26R
WALLOPS ISLAND CLOUDY    45  42  89 CALM      30.26R
ACCOMACK*      CLOUDY    43  39  87 N6        30.23F
$$

NCZ012>017-030>032-191100-
EASTERN NORTH CAROLINA

CITY           SKY/WX    TMP DP  RH WIND       PRES   REMARKS
ELIZABETH CITY LGT RAIN  47  44  90 N14       30.18F
AHOSKIE*       CLOUDY    46  43  91 N7        30.20S
EDENTON*       CLOUDY    46  45  95 NE9       30.17S
CURRITUCK*     DRIZZLE   47  44  90 N15       30.19F
KILL DEVIL HLS CLOUDY    48  46  92 N9G16     30.16R
MANTEO         CLOUDY    49  45  87 NE14      30.16R
CAPE HATTERAS  CLOUDY    51  51 100 NE12G22   30.11S
GOLDSBORO      LGT RAIN  47  47  98 NE10      30.10S
WASHINGTON     CLOUDY    47  42  85 NE10      30.15R
GREENVILLE     RAIN      46  45  93 NE7       30.17R
NEW BERN       HVY RAIN  51  48  89 NE15      30.11F FOG
WILMINGTON     HVY RAIN  54  52  93 N9        30.05R FOG
$$

VAZ048-191100-
ELSEWHERE

CITY           SKY/WX    TMP DP  RH WIND       PRES   REMARKS
HARRISBURG PA  MOCLDY    41  34  76 N3        30.26R
BALTIMORE      CLOUDY    40  36  86 CALM      30.25R
ANNAPOLIS      CLOUDY    44  40  85 CALM      30.26R
ANDREWS AFB    CLOUDY    40  37  90 NE1       30.25R
WILMINGTON DE  MOCLDY    41  38  89 NW3       30.26S
PHILADELPHIA   MOCLDY    43  37  79 SW3       30.26R
WILDWOOD NJ*   MOCLDY    37  34  87 CALM      30.27S
ATLANTIC CITY  MOCLDY    37  35  92 CALM      30.25F
HENDERSON NC   LGT RAIN  46  44  95 N6        30.19S
GREENSBORO     LGT RAIN  46  43  89 NE9       30.15F
ROCKY MOUNT    LGT RAIN  47  44  90 NE12      30.16S
FAYETTEVILLE   LGT RAIN  50  47  89 NE16      30.08F
CHARLOTTE      LGT RAIN  47  46  97 N12G18    30.11F
$$

VAZ100-191100-
MARINE

STATION/POSITION TIME  TEMP    WIND        PRES    WAVE   SWELL
                       AIR SEA DIR/SP/G            HT/PER HT/PER
                 (UTC) (F)     (DEG/KT/KT) (MB)    (FT/S) (FT/S)
44066 TX TWR #4  1000   42 44  300/  6/  8 1024.2F   5/11   5/11
CAPE MAY NJ      1000   41 52  120/  2/  2 1024.5R
LEWES DE         1000   42 48     CALM     1024.1S
15NM E FENWICK I 1000   44 45              1024.4R   6/11
OCEAN-CITY-INLET 1000   44 47   10/  3/  4 1024.1R
WACHAPREAGUE VA  1000   44 52  350/  1/  5 1023.5R
THOMAS POINT MD  1000   48 52  320/  2/  2 1025.2R
GOOSES REEF MD   1000   47     220/  2/  4 1025.1F
COVE POINT MD    1000   46        CALM     1023.9S
SOLOMONS ISLAND  1000      51                N/A
BISHOPS HEAD MD  1000   47 53   CALM  /  1 1023.8S
PINEY POINT MD   1000          180/  3/  4   N/A
POTOMAC MD       1000   47      60/  2/  4 1023.4R
CAMBRIDGE MD     1000   44 55  120/  3/  3 1024.1R
LEWISETTA VA     1000   47 53   60/  1/  2 1023.9R
RAPPAHANNOCK LGT 1000           20/ 10/ 11 1023.9F
STINGRAY PT      1000   47      80/  4/  6 1023.7S
YORK RVR RNG VA  1000   47      60/  5/  5 1022.9F
YORKTOWN VA      1000   47 54   80/  3/  4 1023.5R
JAMESTOWN VA     1000   46      20/  4/  6   N/A
DOMINION TERM VA 1000   47      30/  2/  4 1023.3S
KIPTOPEKE VA     1000      52   40/  5/  8   N/A
CHES BAY BRIDGE  1000   46 51   30/  7/ 10 1023.2R
CAPE HENRY VA    1000   46      30/ 11/ 12   N/A
CHESAPEAKE LGHT  0900   45      20/ 14/ 15 1023.8S
WILLOUBY STN VA  1000   48      40/ 11/ 12 1022.5R
S CRANEY ISL VA  1000           10/  8/ 11 1023.3S
CAPE HENRY BUOY  1000      47                N/A     4/12   2/12
1ST LANDING BUOY 1000      45                N/A     4/ 9   3/ 9
64NM E OF VA BCH 1000   48 48   10/ 16/ 19 1022.2R   6/11   5/11
DUCK PIER NC     1000   47 50   10/ 17/ 20 1020.1R
44100 DUCK FRF   1000      48                N/A     6/12   3/12
44056 DUCK FRF   1000      47                N/A     5/ 9   2/12
OREGON INLET NC  1000   49 52  360/ 12/ 16 1020.7S
HATTERAS NC      1000   53 58   30/ 15/ 20 1019.3R
CAPE LOOKOUT NC  0900   55      10/ 15/ 19 1017.2F
FRYING PAN SHLS  1000   67 65  100/  4/  8 1013.5F   8/ 6   7/ 6
$$



USA.gov is the U.S. government's official web portal to all federal, state and local government web resources and services.